Location: Newark
(7.0858°N, 171.3717°E)
Time: 06:29:49
(UTC+00:00)

Courier 1B - Pass Details

Date: 02 December 2020
Orbit: 962 x 1209 km, 28.3° (Epoch: 19 January)

Event Time Altitude Azimuth Distance (km) Brightness Sun altitude
Rises 07:12:16 0° 257° (WSW) 3,644 12.4 -13.8°
Reaches altitude 10° 07:15:03 10° 263° (W) 2,687 11.1 -14.4°
Maximum altitude 07:21:08 43° 334° (NNW) 1,308 8.2 -15.8°
Enters shadow 07:25:24 19° 36° (NE) 2,106 8.8 -16.8°
Drops below altitude 10° 07:27:19 10° 45° (NE) 2,717 - -17.3°
Sets 07:30:09 0° 51° (NE) 3,690 - -17.9°
